Content
SEND FEEDBACK

Daily
Averages
Monthly
Summary
United States of America

CHATHAM, MICHIGAN


Home > North America > United States > Michigan
Elevation: 869 feet     Latitude: 46 19N     Longitude: 086 55W

WEATHER
 
SELECT A DAY
Number of Records: 82,064;   Date Range: 12/1/04 - 7/7/14
 
SHARE

PRINT THIS DATA

[ ← Previous Day ]
WEATHER ALMANAC - JANUARY 3, 2013
[ Next Day → ]
[ °C ]   °F
Weather ElementAverageHighLow
Temperature23.6 °F28.9 °F (9:56 am)18 °F (6:56 pm)
Dewpoint14.9 °F21.9 °F (9:56 am)10.9 °F (6:56 pm)
Humidity69.5 %78 % (8:56 am)56 % (3:56 pm)
Barometer29.97 in30.03 in (5:56 pm)29.79 in (11:56 pm)
Wind Speed9.1 mph18.4 mph (10:56 am)
Wind Gust29.9 mph (10:56 pm)
Weather ElementAverage
Wind DirectionSW (229.6 °)

Weather ElementTotal
Precipitation---
Heating Degree Days41.6 (Base 65)
Averaged from 24 records on January 3, 2013
WEATHER CONDITIONS BREAKOUT
WIND DIRECTION BREAKOUT
WEATHER BY HOUR - JANUARY 3, 2013
[ °C ]   °F
Local TimeTemperatureDewpointHumidityBarometerVisibilityWind DirectionWind SpeedGust SpeedPrecipitationEventsConditions
1:56 AM21.0 °F14.0 °F74 %30.00 inSSW (210°)3.5 mph
2:56 AM21.0 °F14.0 °F74 %29.99 inSW (230°)3.5 mph
3:56 AM21.0 °F14.0 °F74 %29.98 inSW (230°)3.5 mph
4:56 AM21.0 °F12.9 °F71 %29.97 inVariable3.5 mph
5:56 AM21.0 °F14.0 °F74 %29.96 inCalm
6:56 AM23.0 °F16.0 °F74 %29.96 inWest (260°)5.8 mph
7:56 AM23.0 °F16.0 °F74 %29.96 inWSW (240°)6.9 mph
8:56 AM25.0 °F19.0 °F78 %29.97 inWest (260°)8.1 mph
9:56 AM28.9 °F21.9 °F75 %29.98 inNNW (330°)13.8 mph23.0 mph
10:12 AM28.4 °F21.2 °F74 %29.95 inNNW (330°)13.8 mph
10:56 AM28.0 °F19.0 °F69 %30.01 inNNW (330°)18.4 mph26.5 mph
11:56 AM27.0 °F19.0 °F72 %30.01 inNorth (350°)16.1 mph24.2 mph
12:56 PM26.1 °F17.1 °F69 %30.01 inNorth (350°)16.1 mph20.7 mph
1:56 PM27.0 °F17.1 °F66 %30.01 inNW (320°)10.4 mph23.0 mph
2:56 PM26.1 °F15.1 °F63 %30.01 inNW (310°)8.1 mph19.6 mph
3:56 PM27.0 °F12.9 °F56 %30.01 inNW (310°)9.2 mph16.1 mph
4:56 PM25.0 °F12.0 °F58 %30.02 inCalm
5:56 PM19.9 °F12.0 °F71 %30.03 inSW (220°)4.6 mph
6:56 PM18.0 °F10.9 °F74 %30.01 inSouth (190°)5.8 mph
7:56 PM21.0 °F12.0 °F68 %29.98 inSSW (210°)5.8 mph
8:56 PM23.0 °F12.0 °F63 %29.94 inSW (220°)9.2 mph19.6 mph
9:56 PM21.9 °F12.0 °F66 %29.89 inSSW (200°)16.1 mph23.0 mph
10:56 PM21.9 °F12.0 °F66 %29.84 inSSW (210°)18.4 mph29.9 mph
11:56 PM21.9 °F12.0 °F66 %29.79 inSSW (200°)17.3 mph25.3 mph
Hourly data recorded from KP53, located miles away from Chatham, Michigan







STORIES FROM OUR PARTNERS